Location: Chuathbaluk
(61.5726°N, 159.2454°W)
Time: 01:54:33
(UTC+00:00)

TIGRISAT - Pass Details

Date: 23 January 2021
Orbit: 605 x 688 km, 97.7° (Epoch: 05 March)

Event Time Altitude Azimuth Distance (km) Brightness Sun altitude
Rises 17:11:56 0° 166° (SSE) 2,873 ? -14.2°
Reaches altitude 10° 17:14:06 10° 168° (SSE) 1,980 ? -13.9°
Maximum altitude 17:18:24 75° 254° (WSW) 654 ? -13.5°
Drops below altitude 10° 17:22:50 10° 341° (NNW) 2,037 ? -12.9°
Enters shadow 17:24:27 - 343° (NNW) 2,698 ? -12.8°
